| ID | Machine | Gebeurtenis | Tijd | Uren | Service | Status | USB ID | |
|---|---|---|---|---|---|---|---|---|
| 4692 | 60-049XA-S5 | Engine Start | 17-08-2024 10:36:46 | 892 | - | Niet ingesteld | 2592AEE07E5 | |
| 4688 | 200-064XASB-S5 | ECU Amber Warning | 17-08-2024 10:36:14 | 397 | - | Niet ingesteld | 6E2CAE11DA | |
| 4687 | 200-064XASB-S5 | DPTC Filter Warning | 17-08-2024 10:35:42 | 397 | - | Niet ingesteld | 6E2CAE11DA | |
| 4683 | 60-049XA-S5 | Engine Stopped | 17-08-2024 10:25:49 | 892 | - | Niet ingesteld | 2592AEE07E5 | |
| 4684 | 60-049XA-S5 | kW Overload Alarm Shutdown | 17-08-2024 10:25:40 | 892 | - | Niet ingesteld | 2592AEE07E5 | |
| 4685 | 60-049XA-S5 | Generator Over Current Warning | 17-08-2024 10:25:15 | 892 | - | Niet ingesteld | 2592AEE07E5 | |
| 4686 | 60-049XA-S5 | Generator Over Current Warning | 17-08-2024 10:25:05 | 892 | - | Niet ingesteld | 2592AEE07E5 | |
| 4682 | 60-049XA-S5 | Generator Over Current Warning | 17-08-2024 10:24:48 | 892 | - | Niet ingesteld | 2592AEE07E5 | |
| 4681 | 300-007XASB-S5 | ECU Lamp | 17-08-2024 10:07:52 | 1206 | - | Niet ingesteld | 6B2AC42E75 | |
| 4680 | 200-022 XASI | Engine Start | 17-08-2024 09:58:29 | 8802 | - | Niet ingesteld | 6B25A601F6 | |
| 4679 | 200-064XASB-S5 | Engine Start | 17-08-2024 09:53:00 | 396 | - | Niet ingesteld | 6E2CAE11DA | |
| 4678 | 200-042 AS | Engine Start | 17-08-2024 09:48:22 | 3894 | - | Niet ingesteld | 6F2A305445 | |
| 4677 | 300-015XASB-S5 | Engine Start | 17-08-2024 09:39:17 | 291 | - | Niet ingesteld | 6E2CAD8A1F | |
| 4676 | 300-011XASB-S5 | Engine Start | 17-08-2024 09:38:34 | 429 | - | Niet ingesteld | 6E2CAEAA1C | |
| 4675 | 100-016 XASI | High Coolant Temp Warning | 17-08-2024 09:34:24 | 9358 | - | Niet ingesteld | 691FCBDB78 | |
| 4674 | 200-048 AS | Engine Start | 17-08-2024 09:31:32 | 3801 | - | Niet ingesteld | 6B28F18F5A | |
| 4673 | 200-062XASB-S5 | Engine Start | 17-08-2024 09:25:08 | 579 | - | Niet ingesteld | 6E2CAD8A20 | |
| 4672 | 200-059XASB-S5 | Engine Start | 17-08-2024 09:21:43 | 453 | - | Niet ingesteld | 6F2AC4052B | |
| 4671 | 40-026 | Generator Over Volts Warning | 17-08-2024 09:03:09 | 5071 | - | Niet ingesteld | 6F22B13C06 | |
| 4670 | 60-028 XAS | Generator Over Volts Warning | 17-08-2024 08:16:19 | 7801 | - | Niet ingesteld | 6F23CF0BFC | |
| 4669 | 300-009XASB-S5 | Engine Start | 17-08-2024 07:50:39 | 450 | - | Niet ingesteld | 6B2AC3F7E4 | |
| 4668 | 40-026 | Fuel Remaining 85% | 17-08-2024 07:08:04 | 5069 | - | Niet ingesteld | 6F22B13C06 | |
| 4666 | 300-016XASB-S5 | ECU Lamp | 17-08-2024 07:03:20 | 742 | - | Niet ingesteld | 6E2CEFDBE7 | |
| 4667 | 300-016XASB-S5 | Engine Stopped | 17-08-2024 07:03:00 | 742 | - | Niet ingesteld | 6E2CEFDBE7 | |
| 4665 | 30-007 | Generator Over Current Warning | 17-08-2024 06:42:05 | 3824 | - | Niet ingesteld | 2592B8FD82A |